Date,TemperatureHighF,TemperatureAvgF,TemperatureLowF,DewpointHighF,DewpointAvgF,DewpointLowF,HumidityHigh,HumidityAvg,HumidityLow,PressureMaxIn,PressureMinIn,WindSpeedMaxMPH,WindSpeedAvgMPH,GustSpeedMaxMPH,PrecipitationSumIn
2013-1-1,27.3,21.6,15.7,14.5,8.4,3.3,76,57,41,30.37,30.19,21,5,21,0.00
2013-1-2,27.5,20.0,11.2,13.1,6.0,-1.8,71,54,39,30.53,30.30,26,5,26,0.00
2013-1-3,37.0,23.9,11.9,3.4,-2.2,-6.4,52,34,16,30.52,30.28,20,3,20,0.00
2013-1-4,41.5,21.3,10.2,8.0,1.6,-4.1,61,44,23,30.39,30.15,14,1,14,0.00
2013-1-5,34.9,21.0,5.0,9.3,1.2,-99.9,70,47,27,30.54,30.25,17,-8,17,0.00
2013-1-6,45.4,35.1,12.8,7.1,3.3,-4.3,62,28,15,30.34,29.83,29,6,29,0.00
2013-1-7,43.5,36.4,30.9,13.8,2.8,-99.9,43,27,20,29.99,29.66,32,-3,32,0.00
2013-1-8,42.6,37.1,33.4,19.7,16.4,12.8,54,43,30,30.12,29.68,31,10,31,0.00
2013-1-9,52.5,45.5,35.9,20.5,14.7,7.9,51,30,18,30.15,29.64,34,9,34,0.00
2013-1-10,50.5,45.9,36.5,18.6,9.2,-99.9,46,24,16,29.64,29.29,30,-2,30,0.00
2013-1-11,36.5,12.8,4.1,20.6,4.2,-7.4,84,69,47,30.23,29.30,24,3,24,0.00
2013-1-12,9.9,4.9,0.3,-0.7,-5.1,-8.7,71,63,55,30.40,30.23,20,4,20,0.00
2013-1-13,11.9,4.5,-0.6,-2.3,-5.5,-8.6,74,63,46,30.50,30.37,13,2,13,0.00
2013-1-14,12.6,6.6,-3.7,-6.1,-9.5,-13.6,71,48,35,30.50,30.29,18,4,18,0.00
2013-1-15,31.9,24.1,12.1,13.3,3.7,-99.9,50,44,37,30.33,30.17,29,-3,29,0.00
2013-1-16,42.3,34.2,29.4,14.0,9.9,5.7,48,37,25,30.38,30.17,22,6,22,0.00
2013-1-17,46.1,34.4,17.5,10.6,6.7,2.6,60,34,19,30.52,30.11,22,5,22,0.00
2013-1-18,48.2,43.0,38.8,8.0,4.2,0.8,23,20,16,30.12,29.92,28,9,28,0.00
2013-1-19,47.6,40.8,34.7,8.9,4.7,0.5,30,22,15,30.18,29.97,25,7,25,0.00
2013-1-20,39.3,30.2,16.4,15.6,10.5,3.5,69,46,24,30.38,30.05,22,3,22,0.00
2013-1-21,48.3,39.2,15.6,14.3,7.5,1.6,70,29,18,30.38,29.94,26,7,26,0.00
2013-1-22,52.9,45.6,39.6,4.9,0.1,-5.2,21,15,10,30.02,29.92,22,8,22,0.00
2013-1-23,56.5,50.0,46.2,6.6,-0.3,-8.1,19,12,9,30.00,29.84,29,10,29,0.00
2013-1-24,49.9,46.2,40.1,28.2,19.4,5.4,57,37,17,30.04,29.78,32,10,32,0.00
2013-1-25,49.8,42.6,37.2,24.8,22.5,19.3,56,45,31,30.09,29.91,30,9,30,0.00
2013-1-26,51.4,45.5,39.6,27.0,24.1,20.4,52,43,35,29.91,29.59,28,6,28,0.00
2013-1-27,51.3,45.1,40.1,28.4,26.1,23.7,56,47,36,29.61,29.52,23,5,23,0.00
2013-1-28,38.6,26.3,17.7,27.0,21.2,10.9,89,81,61,29.88,29.55,9,1,9,0.05
2013-1-29,26.6,18.7,7.9,12.9,4.9,0.2,76,56,36,30.27,29.82,14,4,14,0.04
2013-1-30,32.4,24.4,4.3,18.4,9.6,-2.7,80,54,42,30.21,29.91,25,6,25,0.00
2013-1-31,41.2,29.1,19.2,23.1,17.4,13.0,82,63,39,30.28,30.01,16,3,16,0.02
2013-2-1,39.6,33.8,25.1,30.0,20.5,16.9,79,58,48,30.26,29.97,23,5,23,0.00
2013-2-2,46.7,36.7,26.4,19.6,13.4,7.0,69,40,21,30.34,30.16,24,6,24,0.00
2013-2-3,47.9,39.7,33.7,16.4,12.3,9.3,45,33,22,30.17,29.86,22,6,22,0.00
2013-2-6,44.2,43.6,43.1,12.3,11.3,10.5,27,26,26,29.81,29.80,9,5,9,0.00
2013-2-13,32.2,29.1,27.0,24.8,22.0,20.3,77,75,73,30.08,30.02,8,0,8,0.01
2013-2-14,30.4,23.9,20.3,23.7,15.6,11.3,83,71,58,30.43,30.02,20,3,20,0.01
2013-2-15,35.0,27.2,17.2,18.9,14.2,9.9,84,60,37,30.50,30.24,24,5,24,0.01
2013-2-16,44.9,38.4,31.6,21.0,16.3,12.4,48,41,30,30.24,29.77,22,7,22,0.00
2013-2-17,42.8,36.3,25.6,24.6,15.1,6.6,80,45,26,29.89,29.55,30,7,30,0.00
2013-2-18,33.7,24.9,14.0,20.1,13.2,5.9,79,62,33,30.19,29.89,22,3,22,0.00
2013-2-19,44.5,26.3,10.0,28.3,10.0,4.8,83,56,22,30.19,29.73,18,2,18,0.00
2013-2-20,38.0,25.9,17.2,18.3,14.9,11.5,79,64,38,29.87,29.69,13,2,13,0.00
2013-2-21,26.7,22.9,18.1,17.8,15.6,10.4,84,73,61,30.03,29.79,16,2,16,0.01
2013-2-22,33.5,25.7,16.1,15.6,9.7,2.6,77,53,28,30.08,29.80,21,5,21,0.00
2013-2-23,38.2,29.8,24.7,25.3,16.4,7.7,88,58,43,29.84,29.62,29,7,29,0.00
2013-2-24,30.0,22.7,12.3,21.4,16.5,6.6,87,77,59,30.29,29.84,17,2,17,0.11
2013-2-25,35.6,26.7,8.3,17.8,8.5,3.1,84,48,31,30.26,29.80,26,4,26,0.02
2013-2-26,31.2,26.0,20.0,22.4,19.1,8.9,87,75,41,30.32,29.83,21,2,21,0.01
2013-2-27,29.3,24.0,14.9,14.9,9.0,4.2,77,54,38,30.43,30.31,21,4,21,0.01
2013-2-28,35.5,28.8,21.3,13.2,8.3,4.6,61,42,28,30.38,30.24,23,5,23,0.00
2013-3-1,45.7,37.2,21.4,23.9,15.8,-99.9,60,43,32,30.40,30.22,24,-6,24,0.01
2013-3-2,52.2,45.3,36.3,26.2,22.7,18.5,58,41,28,30.24,29.76,22,6,22,0.00
2013-3-3,51.4,43.4,26.4,29.7,22.2,-99.9,72,46,33,29.80,29.47,30,-2,30,0.00
2013-3-4,30.3,24.0,12.4,20.4,7.3,-2.2,82,52,26,30.47,29.79,29,6,29,0.00
2013-3-5,12.8,10.9,8.8,5.8,4.3,2.5,76,74,72,30.46,30.42,2,0,2,0.00
2013-3-9,32.4,30.2,26.6,16.0,15.2,13.2,63,53,45,30.22,30.13,8,1,8,0.00
2013-3-10,50.4,35.3,17.3,21.5,14.1,7.8,80,46,23,30.34,29.92,16,3,16,0.00
2013-3-11,42.8,34.3,23.9,28.4,21.6,12.2,87,64,29,30.30,29.84,16,3,16,0.12
2013-3-12,47.9,30.6,13.8,24.1,18.4,7.7,85,63,33,30.45,30.15,13,1,13,0.17
2013-3-13,60.4,49.7,32.1,31.8,23.6,20.0,71,38,23,30.17,29.97,23,6,23,0.00
2013-3-14,66.6,55.4,42.3,25.2,21.5,18.5,44,27,16,30.12,29.81,22,5,22,0.00
2013-3-15,66.3,57.2,41.3,25.7,18.5,13.0,51,23,13,29.85,29.59,29,6,29,0.00
2013-3-16,54.1,40.8,29.8,30.5,25.3,18.3,86,57,28,29.88,29.71,15,2,15,0.00
2013-3-17,47.6,39.4,29.7,32.3,17.3,-8.3,91,49,15,29.74,29.39,38,9,38,0.00
2013-3-18,31.2,30.9,30.7,9.2,7.0,5.8,40,36,34,29.95,29.93,4,0,4,0.00
2013-3-19,40.2,29.2,21.3,22.0,15.7,6.9,87,60,25,30.40,29.93,21,4,21,0.07
2013-3-20,53.3,34.5,14.3,28.8,17.5,6.4,83,55,16,30.37,29.57,30,5,30,0.00
2013-3-21,45.4,36.1,21.0,29.6,26.3,17.5,88,70,49,29.92,29.36,24,5,24,0.08
2013-3-22,31.0,25.2,19.7,22.6,17.1,8.7,90,72,50,30.11,29.88,13,2,13,0.26
2013-3-23,27.8,19.1,14.1,14.9,7.9,4.2,82,62,42,30.37,30.11,10,2,10,0.02
2013-3-24,22.7,17.6,13.8,14.2,7.5,1.4,78,65,41,30.45,30.25,21,3,21,0.00
2013-3-25,38.8,23.2,6.7,9.9,5.5,1.0,78,50,24,30.51,30.11,20,3,20,0.01
2013-3-26,47.0,37.8,30.4,29.1,14.6,4.6,72,40,25,30.11,29.89,17,4,17,0.00
2013-3-27,56.9,41.6,26.0,30.7,24.3,20.7,82,54,27,30.07,29.89,15,1,15,0.00
2013-3-28,61.3,44.3,28.1,27.6,22.2,15.2,77,47,19,30.06,29.91,14,1,14,0.00
2013-3-29,64.3,48.9,34.1,35.5,24.6,15.1,74,43,16,29.99,29.87,20,3,20,0.00
2013-3-30,52.6,40.0,33.2,37.3,30.1,22.7,90,70,34,30.19,29.96,23,2,23,0.19
2013-3-31,62.1,47.0,30.3,29.0,21.4,14.9,78,41,16,30.18,29.83,18,4,18,0.00
2013-4-1,55.0,41.3,26.9,27.7,22.2,19.1,80,50,27,30.11,29.95,11,2,11,0.00
2013-4-2,58.0,42.5,26.1,25.5,18.8,13.6,69,42,18,30.11,29.93,10,2,10,0.00
2013-4-3,65.2,46.3,29.5,36.2,24.1,15.5,78,47,18,30.08,29.88,18,2,18,0.01
2013-4-4,68.9,51.4,31.3,38.7,27.1,17.6,89,48,16,30.06,29.61,21,3,21,0.01
2013-4-5,66.1,56.9,43.5,34.3,25.8,16.3,66,32,21,29.70,29.40,34,7,34,0.00
2013-4-6,60.5,50.1,39.2,29.9,22.3,13.3,56,35,16,29.80,29.63,24,4,24,0.00
2013-4-7,56.5,50.0,43.3,29.6,25.0,18.8,51,38,26,29.66,29.43,28,8,28,0.00
2013-4-8,49.1,29.5,13.5,32.5,19.7,8.6,85,70,36,30.23,29.44,16,5,16,0.00
2013-4-9,13.6,11.8,10.0,8.6,6.4,4.8,81,78,74,30.58,30.23,11,2,11,0.00
2013-4-10,31.2,19.0,9.3,15.0,9.7,4.1,79,68,43,30.51,30.00,15,3,15,0.34
2013-4-11,48.0,35.8,20.2,30.2,22.1,-99.9,81,64,43,30.00,29.75,16,-8,16,0.07
2013-4-12,45.4,35.8,28.1,30.8,27.4,21.6,90,73,41,30.01,29.80,16,2,16,0.28
2013-4-13,51.3,41.1,25.7,35.7,26.4,18.6,88,59,35,29.89,29.24,26,6,26,0.01
2013-4-14,40.1,31.7,24.4,28.8,17.6,4.6,88,60,24,29.89,29.42,28,6,28,0.16
2013-4-15,28.8,24.0,20.3,21.5,16.3,13.2,79,72,62,30.16,29.83,13,2,13,0.05
2013-4-16,23.6,20.8,19.1,18.6,15.8,12.5,86,81,63,30.32,30.08,15,4,15,0.00
2013-4-17,22.7,19.8,17.2,16.9,15.1,12.1,86,82,74,30.41,30.26,13,2,13,0.08
2013-4-18,35.8,24.6,14.3,16.8,12.9,7.8,84,62,42,30.39,30.17,18,5,18,0.17
2013-4-19,49.9,41.0,31.9,29.0,19.6,11.9,60,43,31,30.17,29.76,21,6,21,0.04
2013-4-20,56.2,46.5,39.8,34.8,29.3,23.5,78,53,32,29.85,29.70,20,3,20,0.00
2013-4-21,56.9,43.6,31.2,34.1,28.1,-99.9,86,59,24,29.98,29.79,21,3,21,0.00
2013-4-22,31.0,24.2,17.8,27.3,18.0,10.4,86,77,63,30.51,29.92,16,3,16,0.06
2013-4-23,40.1,25.2,8.1,16.6,8.6,-1.9,83,54,19,30.51,30.19,21,4,21,0.07
2013-4-24,48.3,36.5,26.6,17.8,12.1,4.6,54,38,21,30.25,30.04,24,4,24,0.00
2013-4-25,64.0,50.6,34.1,19.1,8.4,-99.9,49,20,8,30.05,29.67,29,-5,29,0.00
2013-4-26,67.8,50.9,29.1,24.3,17.5,11.4,64,31,13,30.08,29.87,17,1,17,0.00
2013-4-27,74.2,56.6,35.2,30.1,19.7,10.9,58,28,9,30.03,29.69,21,3,21,0.00
2013-4-28,69.1,59.3,44.3,35.2,25.1,18.4,70,29,18,29.75,29.56,21,4,21,0.00
2013-4-29,68.1,55.2,36.9,36.2,24.7,16.8,84,37,16,29.71,29.31,33,8,33,0.00
2013-4-30,42.1,37.4,29.5,32.1,23.8,16.7,89,60,37,30.11,29.54,13,4,13,0.00
2013-5-1,34.7,28.7,24.2,28.2,22.5,18.1,90,78,56,30.70,30.11,10,2,10,0.34
2013-5-2,52.0,37.9,24.7,22.5,16.8,7.1,80,47,18,30.72,30.35,17,4,17,0.00
2013-5-3,65.0,48.0,26.7,22.5,16.8,10.9,69,34,14,30.36,29.91,15,1,15,0.00
2013-5-4,58.4,47.8,37.8,26.3,22.1,18.3,58,38,22,30.10,29.93,16,3,16,0.00
2013-5-5,62.4,48.3,33.5,26.9,22.2,19.3,60,38,21,30.11,29.91,16,2,16,0.00
2013-5-6,69.6,53.5,36.6,31.0,27.6,22.7,71,41,17,29.97,29.72,10,1,10,0.00
2013-5-7,66.8,54.4,38.9,38.9,32.7,28.9,69,45,27,29.80,29.68,15,1,15,0.00
2013-5-8,69.6,56.2,42.5,36.3,31.1,21.7,71,42,18,29.90,29.73,23,2,23,0.00
2013-5-9,68.3,53.1,41.1,43.1,35.0,26.9,80,54,23,30.02,29.89,21,2,21,0.00
2013-5-10,70.1,55.1,37.3,40.4,32.4,20.0,88,50,15,30.16,29.98,16,3,16,0.00
2013-5-11,70.1,51.7,42.8,37.4,33.8,26.5,73,53,20,30.24,30.03,14,1,14,0.00
2013-5-12,66.1,64.2,62.0,34.0,31.6,30.3,35,30,27,29.78,29.76,6,0,6,0.00
2013-5-13,87.0,72.5,54.1,36.5,31.5,26.1,49,25,12,29.83,29.52,15,2,15,0.00
2013-5-14,85.9,74.4,59.5,38.8,27.5,20.3,38,19,10,29.63,29.44,22,3,22,0.00
2013-5-15,81.8,62.7,48.2,49.2,38.4,27.7,75,45,15,29.73,29.52,21,2,21,0.04
2013-5-16,75.6,62.9,50.1,54.9,42.1,28.5,85,51,22,29.65,29.49,29,3,29,0.14
2013-5-17,81.4,63.7,50.7,50.7,41.1,15.0,90,54,10,29.63,29.44,21,2,21,0.02
2013-5-18,70.3,57.4,46.0,47.4,39.7,26.5,86,56,24,29.68,29.57,22,2,22,0.01
2013-5-19,53.1,48.3,45.5,46.4,44.6,39.6,92,87,63,29.80,29.61,17,2,17,1.96
2013-5-20,52.9,46.4,43.1,43.2,38.2,29.4,92,75,42,30.03,29.78,18,4,18,0.27
2013-5-21,66.0,51.9,42.2,37.8,31.1,-99.9,84,51,22,30.02,29.72,15,-7,15,0.02
2013-5-22,66.3,51.8,38.9,43.1,38.3,33.0,90,64,31,29.82,29.69,22,4,22,0.00
2013-5-23,78.1,58.6,44.1,48.1,42.1,34.8,86,59,21,29.77,29.44,33,7,33,0.00
2013-5-24,76.0,65.4,56.7,40.2,25.7,16.6,44,24,11,29.72,29.40,31,5,31,0.00
2013-5-25,82.6,64.9,46.7,37.4,26.6,13.4,54,28,8,29.75,29.52,21,1,21,0.00
2013-5-26,78.5,64.7,50.8,48.2,37.8,18.8,67,40,13,29.72,29.46,13,1,13,0.00
2013-5-27,76.3,62.8,49.4,49.3,36.3,12.2,84,46,12,29.60,29.46,29,4,29,0.00
2013-5-28,72.8,57.8,43.5,40.0,36.2,30.6,67,46,27,29.58,29.38,20,2,20,0.00
2013-5-29,59.9,53.7,48.0,46.9,39.7,32.1,85,60,43,29.50,29.38,22,5,22,0.00
2013-5-30,59.9,53.3,48.8,38.4,35.4,28.7,65,51,36,29.64,29.42,29,8,29,0.02
2013-5-31,58.0,50.4,45.4,37.5,28.9,-99.9,68,51,34,30.01,29.61,30,8,30,0.00
2013-6-1,69.1,54.8,44.3,37.7,33.3,28.6,76,47,23,30.16,29.91,13,2,13,0.00
2013-6-2,85.5,64.1,39.9,41.0,31.4,23.8,81,38,12,29.96,29.30,18,1,18,0.00
2013-6-3,72.1,71.8,71.3,26.2,25.1,24.0,18,17,17,29.30,29.27,9,0,9,0.00
2013-6-8,75.3,68.8,57.0,45.0,34.9,23.9,54,31,15,29.76,29.64,20,4,20,0.18
2013-6-9,92.3,69.4,46.4,46.6,39.2,25.9,80,41,10,29.76,29.44,14,1,14,0.00
2013-6-10,92.3,78.6,68.8,48.4,38.4,27.8,44,24,13,29.56,29.33,23,1,23,0.00
2013-6-11,89.9,71.8,55.3,52.8,39.6,20.5,84,41,9,29.65,29.39,26,3,26,0.00
2013-6-12,84.5,69.3,49.6,49.7,42.9,35.0,82,43,20,29.82,29.58,17,2,17,0.00
2013-6-13,89.0,68.7,50.8,55.6,44.3,30.8,86,49,13,29.74,29.42,28,2,28,0.00
2013-6-14,80.1,66.3,52.2,51.9,33.5,9.2,77,39,9,29.83,29.41,28,4,28,0.00
2013-6-15,78.6,63.4,44.3,43.8,37.2,27.9,73,41,16,29.91,29.69,9,0,9,0.00
2013-6-16,86.7,69.7,51.6,43.7,32.9,19.6,58,31,9,29.81,29.66,10,1,10,0.00
2013-6-17,84.0,68.1,54.8,49.1,43.5,30.1,71,44,17,29.83,29.71,15,1,15,0.00
2013-6-18,85.5,67.2,49.8,48.9,40.4,25.4,79,44,12,29.81,29.51,20,2,20,0.00
2013-6-19,92.5,74.6,52.9,47.4,29.7,10.7,66,28,6,29.52,29.26,22,2,22,0.00
2013-6-20,83.4,71.1,56.9,36.7,18.3,10.5,36,14,7,29.63,29.37,18,3,18,0.00
2013-6-21,86.5,67.7,55.3,53.1,39.7,15.5,74,40,9,29.69,29.49,22,2,22,0.00
2013-6-22,76.7,62.1,52.5,52.8,48.2,38.5,83,62,31,29.75,29.48,25,1,25,0.01
2013-6-23,84.5,64.2,45.1,48.1,32.1,-99.9,86,42,9,29.85,29.46,21,-9,21,0.00
2013-6-24,89.9,72.7,49.8,44.7,31.5,17.1,67,29,7,29.66,29.30,20,1,20,0.00
2013-6-25,83.2,73.9,62.3,38.7,34.6,26.4,40,25,16,29.61,29.31,29,7,29,0.00
2013-6-26,92.5,76.6,56.3,47.1,37.0,32.3,54,26,13,29.73,29.58,23,3,23,0.00
2013-6-27,95.6,78.0,58.6,51.4,41.4,26.1,67,34,9,29.85,29.72,21,2,21,0.00
2013-6-28,92.5,76.1,59.2,52.0,47.3,42.3,68,40,18,29.93,29.78,13,1,13,0.00
2013-6-29,90.3,75.7,59.5,51.9,45.4,36.8,66,38,16,29.87,29.73,11,1,11,0.00
2013-6-30,70.4,60.6,58.6,56.4,54.6,44.8,89,82,41,29.90,29.78,14,1,14,0.28